User: anonymous   Login
Location: Branche des Alpilles
(43.6087°N, 4.6976°E)
Time: 07:39:32
(UTC+00:00)
Language:

Landsat 5 - Orbit

View from above orbital plane
View from above orbital plane
View from above satellite
View from above satellite

Ground track
Ground track

The orbit data is extracted from the following two-line orbital elements,

1 14780U 84021A   21057.92420137  .00000083  00000-0  13792-4 0  9995
2 14780  98.1950 230.8713 0090758  49.2720 311.6334 14.92221704501729
Epoch (UTC): 26 February 2021 22:10:50
Eccentricity: 0.0090758
inclination: 98.1950°
perigee height: 528 km
apogee height: 654 km
right ascension of ascending node: 230.8713°
argument of perigee: 49.2720°
revolutions per day: 14.92221704
mean anomaly at epoch: 311.6334°
orbit number at epoch: 50172

The dashed part of the orbit path shows where the satellite is in the earth's shadow,  

DLR